TimeCDT,TemperatureF,Dew PointF,Humidity,Sea Level PressureIn,VisibilityMPH,Wind Direction,Wind SpeedMPH,Gust SpeedMPH,PrecipitationIn,Events,Conditions,WindDirDegrees,DateUTC
12:13 AM,50.0,33.8,54,29.96,10.0,NNW,5.8,-,N/A,,Clear,340,2012-10-02 05:13:00
12:32 AM,48.2,33.8,58,29.96,10.0,NNW,6.9,-,N/A,,Clear,330,2012-10-02 05:32:00
12:52 AM,46.4,33.8,62,29.96,10.0,NNW,6.9,-,N/A,,Clear,330,2012-10-02 05:52:00
1:33 AM,46.4,33.8,62,29.97,10.0,North,5.8,-,N/A,,Clear,350,2012-10-02 06:33:00
2:13 AM,46.4,33.8,62,29.97,10.0,NNW,8.1,-,N/A,,Clear,340,2012-10-02 07:13:00
2:32 AM,46.4,33.8,62,29.97,10.0,North,5.8,-,N/A,,Clear,350,2012-10-02 07:32:00
2:53 AM,44.6,33.8,66,29.97,4.0,North,8.1,-,N/A,,Haze,360,2012-10-02 07:53:00
3:13 AM,44.6,32.0,61,29.96,10.0,North,8.1,-,N/A,,Clear,360,2012-10-02 08:13:00
3:32 AM,44.6,33.8,66,29.96,10.0,North,6.9,-,N/A,,Clear,360,2012-10-02 08:32:00
3:53 AM,44.6,33.8,66,29.96,10.0,NNE,6.9,-,N/A,,Clear,20,2012-10-02 08:53:00
4:12 AM,44.6,32.0,61,29.96,10.0,NNE,5.8,-,N/A,,Clear,20,2012-10-02 09:12:00
4:33 AM,41.0,32.0,70,29.96,10.0,Calm,Calm,-,N/A,,Clear,0,2012-10-02 09:33:00
4:53 AM,41.0,32.0,70,29.96,10.0,Calm,Calm,-,N/A,,Clear,0,2012-10-02 09:53:00
5:32 AM,41.0,32.0,70,29.96,10.0,Calm,Calm,-,N/A,,Clear,0,2012-10-02 10:32:00
5:53 AM,41.0,32.0,70,29.97,10.0,Calm,Calm,-,N/A,,Clear,0,2012-10-02 10:53:00
6:13 AM,41.0,32.0,70,29.98,10.0,Calm,Calm,-,N/A,,Clear,0,2012-10-02 11:13:00
6:32 AM,41.0,32.0,70,29.98,10.0,Calm,Calm,-,N/A,,Clear,0,2012-10-02 11:32:00
7:13 AM,39.2,32.0,75,29.98,10.0,Calm,Calm,-,N/A,,Clear,0,2012-10-02 12:13:00
7:32 AM,39.2,32.0,75,29.98,10.0,Calm,Calm,-,N/A,,Clear,0,2012-10-02 12:32:00
7:53 AM,39.2,32.0,75,29.99,10.0,Calm,Calm,-,N/A,,Clear,0,2012-10-02 12:53:00
8:13 AM,41.0,33.8,76,29.99,10.0,Calm,Calm,-,N/A,,Clear,0,2012-10-02 13:13:00
8:33 AM,44.6,35.6,71,29.99,10.0,Calm,Calm,-,N/A,,Clear,0,2012-10-02 13:33:00
8:52 AM,46.4,35.6,66,29.99,10.0,Calm,Calm,-,N/A,,Clear,0,2012-10-02 13:52:00
9:13 AM,51.8,37.4,58,29.99,10.0,Calm,Calm,-,N/A,,Clear,0,2012-10-02 14:13:00
9:33 AM,55.4,39.2,54,29.99,10.0,Calm,Calm,-,N/A,,Clear,0,2012-10-02 14:33:00
9:53 AM,59.0,42.8,55,29.98,10.0,Calm,Calm,-,N/A,,Clear,0,2012-10-02 14:53:00
10:12 AM,62.6,42.8,48,29.98,10.0,ESE,4.6,-,N/A,,Clear,120,2012-10-02 15:12:00
10:33 AM,64.4,41.0,42,29.98,10.0,East,6.9,-,N/A,,Clear,100,2012-10-02 15:33:00
10:52 AM,64.4,39.2,40,29.97,10.0,ESE,8.1,-,N/A,,Clear,110,2012-10-02 15:52:00
11:13 AM,64.4,37.4,37,29.97,10.0,ESE,4.6,-,N/A,,Clear,120,2012-10-02 16:13:00
11:33 AM,68.0,35.6,30,29.96,10.0,SE,5.8,-,N/A,,Clear,140,2012-10-02 16:33:00
11:53 AM,68.0,35.6,30,29.96,10.0,SE,6.9,-,N/A,,Clear,130,2012-10-02 16:53:00
12:12 PM,68.0,35.6,30,29.96,10.0,Calm,Calm,-,N/A,,Clear,0,2012-10-02 17:12:00
12:32 PM,69.8,33.8,27,29.95,10.0,Calm,Calm,-,N/A,,Clear,0,2012-10-02 17:32:00
12:53 PM,71.6,35.6,27,29.94,10.0,SE,5.8,-,N/A,,Clear,130,2012-10-02 17:53:00
1:13 PM,71.6,33.8,25,29.94,10.0,SSW,6.9,-,N/A,,Clear,200,2012-10-02 18:13:00
1:33 PM,71.6,33.8,25,29.93,10.0,South,5.8,-,N/A,,Clear,190,2012-10-02 18:33:00
1:53 PM,71.6,32.0,23,29.92,10.0,West,6.9,-,N/A,,Clear,260,2012-10-02 18:53:00
2:12 PM,73.4,32.0,22,29.91,10.0,South,5.8,-,N/A,,Clear,190,2012-10-02 19:12:00
2:33 PM,73.4,32.0,22,29.91,10.0,South,6.9,-,N/A,,Clear,180,2012-10-02 19:33:00
2:53 PM,73.4,32.0,22,29.90,10.0,South,5.8,-,N/A,,Clear,170,2012-10-02 19:53:00
3:13 PM,73.4,32.0,22,29.89,10.0,South,6.9,-,N/A,,Clear,180,2012-10-02 20:13:00
3:33 PM,73.4,32.0,22,29.89,10.0,Calm,Calm,-,N/A,,Clear,0,2012-10-02 20:33:00
3:53 PM,73.4,32.0,22,29.89,10.0,ESE,3.5,-,N/A,,Clear,110,2012-10-02 20:53:00
4:12 PM,73.4,32.0,22,29.88,7.0,South,4.6,-,N/A,,Clear,190,2012-10-02 21:12:00
4:33 PM,73.4,28.4,19,29.88,10.0,SSW,8.1,-,N/A,,Clear,210,2012-10-02 21:33:00
4:53 PM,73.4,30.2,20,29.88,10.0,South,4.6,-,N/A,,Clear,190,2012-10-02 21:53:00
5:00 PM,73.4,30.2,20,29.88,10.0,SE,6.9,-,N/A,,Clear,140,2012-10-02 22:00:00